DW9007 Weather Reports


Display with metric or nautical units.
time (UTC)temp
F
wind
direction
speed
MPH
gust
MPH
rain 1hr
in
rain 24hr
in
rain mn
in
humidity
%
barometer
mb
20260906091554 73 280 0.0 4.0 0.00 0.00 0.00 92 1010.3
20260906090058 73 344 1.0 7.0 0.00 0.00 0.00 92 1010.2
20260906084545 74 360 1.0 10.0 0.00 0.00 0.00 91 1010.6
20260906083035 76 75 1.0 10.0 0.00 0.00 0.00 91 1010.8
20260906081511 77 50 0.0 4.0 0.00 0.00 0.00 91 1011.2
20260906080007 78 340 0.0 1.0 0.00 0.00 0.00 92 1011.2
20260906074547 78 61 0.0 4.0 0.00 0.00 0.00 92 1011.1
20260906073048 78 117 0.0 0.0 0.00 0.00 0.00 92 1010.9
20260906071529 78 117 0.0 0.0 0.00 0.00 0.00 92 1010.6
20260906070029 78 117 0.0 0.0 0.00 0.00 0.00 92 1010.5
20260906064514 78 117 0.0 0.0 0.00 0.00 0.00 92 1010.4
20260906063014 78 117 0.0 0.0 0.00 0.00 0.00 92 1010.4
20260906061538 78 117 0.0 0.0 0.00 0.00 0.00 91 1010.5
20260906060038 79 117 0.0 0.0 0.00 0.00 0.00 91 1010.8
20260906054518 79 117 0.0 0.0 0.00 0.00 0.00 90 1011.0
20260906053018 79 117 0.0 0.0 0.00 0.00 0.00 90 1011.2
20260906051608 79 117 0.0 0.0 0.00 0.00 0.00 90 1011.1
20260906050059 79 117 0.0 0.0 0.00 0.00 0.00 90 1011.2
20260906044542 79 117 0.0 0.0 0.00 0.00 0.00 90 1011.1
20260906043041 79 117 0.0 0.0 0.00 0.00 0.00 89 1011.1
20260906041521 80 119 1.0 5.0 0.00 0.00 0.00 89 1011.4
20260906040028 80 212 0.0 0.0 0.00 0.00 0.00 89 1010.9
20260906034600 80 212 0.0 0.0 0.00 0.00 0.00 88 1011.0
20260906033105 80 213 0.0 0.0 0.00 0.00 0.00 88 1011.0
20260906031542 80 213 0.0 0.0 0.00 0.00 0.00 87 1011.0
20260906030041 80 213 0.0 0.0 0.00 0.00 0.00 87 1010.7
20260906024521 81 213 0.0 0.0 0.00 0.00 0.00 86 1010.6
20260906023019 81 213 0.0 0.0 0.00 0.00 0.00 85 1010.7
20260906021501 81 213 0.0 0.0 0.00 0.00 0.00 85 1010.6
20260906020059 81 213 0.0 0.0 0.00 0.00 0.00 84 1010.4
20260906014551 82 213 0.0 0.0 0.00 0.00 0.00 83 1010.2
20260906013041 82 213 0.0 0.0 0.00 0.00 0.00 81 1009.8
20260906011532 83 213 0.0 0.0 0.00 0.00 0.00 80 1009.4
20260906010016 83 213 0.0 0.0 0.00 0.00 0.00 78 1009.4
20260906004600 84 213 0.0 0.0 0.00 0.00 0.00 76 1009.3
20260906003110 85 268 0.0 0.0 0.00 0.00 0.00 74 1009.3
20260906001533 86 242 0.0 4.0 0.00 0.00 0.00 73 1009.4
20260906000030 87 269 1.0 6.0 0.00 0.00 0.00 71 1009.3
20260905234509 88 192 0.0 6.0 0.00 0.00 0.00 68 1009.4
20260905233007 89 249 0.0 3.0 0.00 0.00 0.00 66 1009.2
20260905231548 89 154 0.0 2.0 0.00 0.00 0.00 66 1009.2
20260905230046 90 209 0.0 3.0 0.00 0.00 0.00 63 1009.1
20260905224530 91 246 0.0 0.0 0.00 0.00 0.00 58 1009.0
20260905223023 92 246 0.0 1.0 0.00 0.00 0.00 57 1009.0
20260905221504 93 74 0.0 3.0 0.00 0.00 0.00 59 1008.9
20260905220005 92 203 0.0 5.0 0.00 0.00 0.00 60 1009.0
20260905214543 94 235 0.0 3.0 0.00 0.00 0.00 56 1009.0
20260905213042 96 113 0.0 2.0 0.00 0.00 0.00 52 1009.0
20260905211522 97 111 0.0 5.0 0.00 0.00 0.00 50 1009.0
20260905210020 96 355 0.0 3.0 0.00 0.00 0.00 51 1009.0
20260905204501 97 360 1.0 5.0 0.00 0.00 0.00 51 1009.3
20260905203101 97 108 1.0 5.0 0.00 0.00 0.00 50 1009.3
20260905201544 96 92 0.0 5.0 0.00 0.00 0.00 51 1009.5
20260905200050 96 46 1.0 3.0 0.00 0.00 0.00 52 1009.4
20260905194516 95 28 0.0 2.0 0.00 0.00 0.00 53 1009.7
20260905193014 96 82 1.0 4.0 0.00 0.00 0.00 54 1010.0
20260905191614 95 124 0.0 9.0 0.00 0.00 0.00 55 1010.1
20260905190057 94 113 1.0 4.0 0.00 0.00 0.00 56 1010.5
20260905184550 94 115 0.0 5.0 0.00 0.00 0.00 55 1010.6
20260905183034 94 182 0.0 5.0 0.00 0.00 0.00 57 1010.9
20260905181535 93 76 0.0 5.0 0.00 0.00 0.00 58 1011.2
20260905180013 94 313 0.0 4.0 0.00 0.00 0.00 60 1011.4
20260905174512 93 306 0.0 1.0 0.00 0.00 0.00 60 1011.6
20260905173052 92 46 0.0 3.0 0.00 0.00 0.00 63 1011.8
20260905171552 92 29 0.0 3.0 0.00 0.00 0.00 64 1012.0
20260905170046 92 44 1.0 5.0 0.00 0.00 0.00 65 1012.3
20260905164534 91 297 0.0 3.0 0.00 0.00 0.00 68 1012.5
20260905163016 90 323 0.0 4.0 0.00 0.00 0.00 72 1012.5
20260905161515 89 339 0.0 5.0 0.00 0.00 0.00 72 1012.6
20260905160059 88 74 0.0 5.0 0.00 0.00 0.00 74 1012.6
20260905154603 87 351 0.0 5.0 0.00 0.00 0.00 77 1012.7
20260905153040 85 279 0.0 5.0 0.00 0.00 0.00 80 1012.7
20260905151542 84 140 1.0 5.0 0.00 0.00 0.00 82 1012.8
20260905150020 83 100 0.0 5.0 0.00 0.00 0.00 84 1012.7
20260905144528 81 5 0.0 5.0 0.00 0.00 0.00 86 1012.7
20260905143001 81 130 0.0 3.0 0.00 0.00 0.00 88 1012.9
20260905141501 80 23 0.0 3.0 0.00 0.00 0.00 89 1012.9
20260905140041 79 74 0.0 4.0 0.00 0.00 0.00 91 1012.9
20260905134543 78 80 0.0 2.0 0.00 0.00 0.00 92 1013.1
20260905133024 77 44 0.0 4.0 0.00 0.00 0.00 93 1013.1
20260905131533 75 95 0.0 0.0 0.00 0.00 0.00 94 1013.1
20260905130003 74 95 0.0 0.0 0.00 0.00 0.00 94 1013.2
20260905124505 74 95 0.0 0.0 0.00 0.00 0.00 94 1013.1
20260905123046 74 95 0.0 0.0 0.00 0.00 0.00 94 1013.0
20260905121545 73 95 0.0 0.0 0.00 0.00 0.00 94 1013.0
20260905120032 73 95 0.0 0.0 0.00 0.00 0.00 94 1012.9
20260905114540 73 95 0.0 0.0 0.00 0.00 0.00 93 1012.7
20260905113037 73 95 0.0 0.0 0.00 0.00 0.00 93 1012.6
20260905111531 73 95 0.0 0.0 0.00 0.00 0.00 93 1012.6
20260905110034 73 95 0.0 0.0 0.00 0.00 0.00 93 1012.6
20260905104529 73 95 0.0 0.0 0.00 0.00 0.00 93 1012.5
20260905103027 74 95 0.0 0.0 0.00 0.00 0.00 93 1012.4
20260905101538 74 95 0.0 0.0 0.00 0.00 0.00 92 1012.3
20260905100020 74 95 0.0 0.0 0.00 0.00 0.00 93 1012.3
20260905094511 74 95 0.0 0.0 0.00 0.00 0.00 92 1012.2
20260905093056 74 95 0.0 0.0 0.00 0.00 0.00 92 1012.2